Location: Antioch Church
(34.9543°N, 88.5145°W)
Time: 23:17:36
(UTC+00:00)

SKYMED 2 - Pass Details

Date: 11 December 2019
Orbit: 621 x 623 km, 97.9° (Epoch: 24 January)

Event Time Altitude Azimuth Distance (km) Brightness Sun altitude
Rises 11:36:48 0° 182° (S) 2,887 7.2 -14.9°
Reaches altitude 10° 11:39:03 10° 188° (S) 1,985 6.3 -14.5°
Maximum altitude 11:43:11 44° 261° (W) 868 3.9 -13.7°
Drops below altitude 10° 11:47:20 10° 334° (NNW) 1,999 5.8 -12.9°
Enters shadow 11:47:26 10° 334° (NNW) 2,036 5.8 -12.9°
